Twin Falls, ID

10:16 AM MDT on March 25, 2017 (GMT -0600)
Joslin Field-Magic Valley Regional

Weather History for KTWF - March, 2014

Change the Weather History Date:

Saturday, March 22, 2014

  Actual Average Record
Temperature  
Mean Temperature 38 °F -  
Max Temperature 50 °F 55 °F 70 °F (1986)
Min Temperature 26 °F 32 °F 20 °F (1982)
Degree Days  
Heating Degree Days 27 22  
Month to date heating degree days 431 536  
Since 1 July heating degree days 4684 5103  
Cooling Degree Days 0 0  
Month to date cooling degree days 0 0  
Year to date cooling degree days 0 0  
Moisture  
Dew Point 11 °F    
Average Humidity 35    
Maximum Humidity 50    
Minimum Humidity 20    
Precipitation  
Precipitation 0.00 in 0.04 in 0.47 in (2009)
Month to date precipitation 1.01 0.64  
Year to date precipitation 3.25 2.43  
Sea Level Pressure  
Sea Level Pressure 30.16 in    
Wind  
Wind Speed 12 mph (SW)    
Max Wind Speed 23 mph    
Max Gust Speed 26 mph    
Visibility 10 miles    
Events      
T = Trace of Precipitation, MM = Missing Value Source: NWS Daily Summary

Daily Weather History Graph

Daily Weather History Graph

Search for Another Location

Airport or City:

Trip Planner

Search our weather history database for the weather conditions in past years. The results will help you decide how hot, cold, wet, or windy it might be!

Date:

Astronomy

Mar. 22, 2014 Rise Set
Actual Time 7:37 AM MDT 7:52 PM MDT
Civil Twilight 7:09 AM MDT 8:20 PM MDT
Nautical Twilight 6:36 AM MDT 8:53 PM MDT
Astronomical Twilight 6:02 AM MDT 9:27 PM MDT
Moon 1:21 AM MDT (3/22) 11:18 AM MDT (3/22)
Length of Visible Light 13h 11m
Length of Day
12h 15m
Waning Gibbous, 65% of the Moon is Illuminated
Mar 22
Waning Gibbous
Mar 23
Last Quarter
Mar 30
New
Apr 7
First Quarter
Apr 15
Full

Hourly Weather History & Observations

Time (MDT) Temp. Windchill Dew Point Humidity Pressure Visibility Wind Dir Wind Speed Gust Speed Precip Events Conditions
12:53 AM 32.0 °F 23.0 °F 10.9 °F 42% 30.06 in 10.0 mi SSW 11.5 mph - N/A   Scattered Clouds
1:53 AM 30.0 °F 21.1 °F 10.9 °F 45% 30.07 in 10.0 mi South 10.4 mph - N/A   Scattered Clouds
2:53 AM 28.0 °F 18.1 °F 10.0 °F 47% 30.07 in 10.0 mi South 11.5 mph - N/A   Clear
3:53 AM 28.9 °F 17.7 °F 10.0 °F 45% 30.06 in 10.0 mi South 15.0 mph - N/A   Clear
4:53 AM 30.9 °F 19.4 °F 9.0 °F 40% 30.08 in 10.0 mi South 17.3 mph - N/A   Clear
5:53 AM 30.0 °F 20.0 °F 10.0 °F 43% 30.11 in 10.0 mi SSW 12.7 mph - N/A   Clear
6:53 AM 27.0 °F 17.3 °F 10.9 °F 51% 30.14 in 10.0 mi SSW 10.4 mph - N/A   Clear
7:53 AM 27.0 °F 19.5 °F 10.9 °F 51% 30.18 in 10.0 mi SSW 6.9 mph - N/A   Clear
8:53 AM 32.0 °F 22.1 °F 12.0 °F 44% 30.19 in 10.0 mi SW 13.8 mph - N/A   Clear
9:53 AM 36.0 °F 25.0 °F 14.0 °F 41% 30.21 in 10.0 mi West 20.7 mph - N/A   Clear
10:53 AM 39.9 °F 30.8 °F 16.0 °F 38% 30.22 in 10.0 mi West 18.4 mph - N/A   Clear
11:53 AM 42.1 °F 33.9 °F 15.1 °F 34% 30.23 in 10.0 mi West 17.3 mph - N/A   Clear
12:53 PM 44.1 °F 37.4 °F 12.9 °F 28% 30.23 in 10.0 mi West 13.8 mph - N/A   Clear
1:53 PM 46.9 °F - 12.9 °F 25% 30.21 in 10.0 mi West 15.0 mph 21.9 mph N/A   Clear
2:53 PM 48.0 °F - 12.9 °F 24% 30.20 in 10.0 mi West 17.3 mph 23.0 mph N/A   Clear
3:53 PM 48.0 °F - 12.9 °F 24% 30.18 in 10.0 mi WNW 9.2 mph - N/A   Clear
4:53 PM 48.9 °F - 12.0 °F 23% 30.16 in 10.0 mi West 10.4 mph 19.6 mph N/A   Clear
5:53 PM 50.0 °F - 10.9 °F 21% 30.16 in 10.0 mi West 13.8 mph - N/A   Clear
6:53 PM 46.9 °F - 9.0 °F 21% 30.17 in 10.0 mi West 5.8 mph - N/A   Clear
7:53 PM 44.1 °F 42.5 °F 8.1 °F 23% 30.17 in 10.0 mi West 3.5 mph - N/A   Clear
8:53 PM 30.0 °F 26.5 °F 10.0 °F 43% 30.21 in 10.0 mi South 3.5 mph - N/A   Clear
9:53 PM 33.1 °F 28.7 °F 9.0 °F 37% 30.19 in 10.0 mi SW 4.6 mph - N/A   Clear
10:53 PM 32.0 °F 22.5 °F 12.0 °F 44% 30.18 in 10.0 mi South 12.7 mph - N/A   Clear
11:53 PM 30.9 °F 21.2 °F 12.0 °F 46% 30.18 in 10.0 mi South 12.7 mph - N/A   Clear